カタログに戻る

DMSP 5D-2 F13 DEB

運用中SSO
NORAD 40515·DEBRIS·🇺🇸 United States

打ち上げ Mar 24, 1995 から Vandenberg Space Force Base

Loading…

次のパス (今後24時間)

TLE

最新Source: Space-Track

元期: Sep 14, 2026, 14:13 UTC

1 40515U 95015DB  26257.59299155  .00003372  00000-0  10922-2 0  9993
2 40515  98.8248 300.5969 0015387  20.3306 339.8491 14.39617224594505

AllMySatでDMSP 5D-2 F13 DEBをリアルタイム追跡

Download on the App Store